Location: Newark
(50.0306°N, 2.3272°E)
Time: 14:04:59
(UTC+00:00)

Transit 2A Rocket - Pass Details

Date: 07 December 2019
Orbit: 593 x 910 km, 66.7° (Epoch: 22 January)

Event Time Altitude Azimuth Distance (km) Brightness Sun altitude
Rises 00:17:33 0° 327° (NNW) 2,846 - -61.6°
Reaches altitude 10° 00:20:00 10° 338° (NNW) 1,954 - -61.5°
Maximum altitude 00:23:51 30° 40° (NE) 1,124 - -61.3°
Drops below altitude 10° 00:27:52 10° 102° (ESE) 2,039 - -61.1°
Sets 00:30:28 0° 113° (ESE) 2,993 - -60.9°
